Portada
METAR-TAF:

METAR-TAF

Aeroports :

Clearwater, Florida, Estats Units d'Amèrica

latitud: 27-58-36N, longitud: 082-45-31W, altitud: 22 m

Observació

L'informe es va fer fa 23 minuts, a les 21:35 UTC
Vent 10 kt del Nord-Oest
Temperatura 14°C
Humitat 55%
Pressió 1024 hPa
Visibilitat: 16.1 km
Cel clar

METAR: KCLW 282135Z AUTO 31010KT 10SM CLR 14/05 A3024 RMK AO2

Hora: 16:58 (21:58 UTC)


TAF: manca

Observacions i pronòstics meteorològics de més de 4000 aeroports (METAR i TAF).

Les estacions disponibles són els punts grocs i vermells al mapa.

Posi el ratolí al punt desitjat per veure el nom de l'estació.

Feu clic per veure les observacions i els pronòstics meteorològics.

Per canviar el mapa: feu clic els botons verds amb una creu de color negre per apropar; al botó verd amb un guió per allunyar la imatge; o en les fletxes verdes per a mapes adjacents.


METAR-TAF: